Location: Les Coudrans
(46.1056°N, 1.1158°W)
Time: 18:32:49
(UTC+00:00)

SL-08 R/B - Pass Details

Date: 03 March 2021
Orbit: 949 x 1019 km, 82.9° (Epoch: 14 April)

Event Time Altitude Azimuth Distance (km) Brightness Sun altitude
Enters shadow 20:06:06 -1° 176° (S) 3,786 7.4 -23.5°
Exits shadow 20:11:54 30° 164° (SSE) 1,716 5.5 -24.5°
Maximum altitude 20:15:08 65° 94° (E) 1,117 4.5 -25.0°
Drops below altitude 10° 20:21:32 10° 14° (NNE) 2,817 7.0 -26.1°
Sets 20:24:07 0° 12° (NNE) 3,771 7.7 -26.5°
